Current Weather Conditions: station 62154

sailwx.info

Wind from 240 at 18 knots

Wave height 3.2 meters (10 feet), 6 second period

Last reported at 2018-Sep-20 12:00 UTC.
Time now 2018-Sep-20 13:30 UTC

Location: N 56°24' E 002°12'.
View on Google Maps.

See reports from other nearby stations

  
Tides and Currents Weather Stations Pressure Air Temp Water Temp Dewpoint Dewpoint Depression Visibility Wind Speed Wind Dir Waves Ship Positions
date/time (UTC)wind fromknots sea level pressurealtimeterstation pressurevisibilityair tempwater tempwave heightnotes
2018-Sep-20 12:00 240 18 3.2
2018-Sep-20 11:00 240 20 3.1
2018-Sep-20 10:00 240 21 3.1
2018-Sep-20 09:00 250 21 3.2
2018-Sep-20 08:00 250 22 3.7
2018-Sep-20 07:00 250 22 3.5
2018-Sep-20 06:00 240 27 3.9
2018-Sep-20 05:00 240 24 4.2
2018-Sep-20 04:00 240 27 4.3
2018-Sep-20 03:00 240 27
2018-Sep-20 02:00 230 29 4.1
2018-Sep-20 01:00 240 27 4.5
2018-Sep-20 00:00 240 27 5.5
2018-Sep-19 23:00 240 31 5.6
2018-Sep-19 22:00 250 32 6.2
2018-Sep-19 21:00 240 34 4.4
2018-Sep-19 20:00 250 33 3.8
2018-Sep-19 19:00 240 34 4.5
2018-Sep-19 18:00 240 35 4.2
2018-Sep-19 17:00 240 38 4.0
2018-Sep-19 16:00 230 36 4.2
2018-Sep-19 15:00 210 38 3.8
2018-Sep-19 14:00 200 38 3.1
2018-Sep-19 13:00 200 35 2.7
2018-Sep-19 12:00 200 31 2.2
2018-Sep-19 11:00 190 27
2018-Sep-19 10:00 200 22 1.9
2018-Sep-19 09:00 200 20 2.1
2018-Sep-19 08:00 220 18 2.4
2018-Sep-19 07:00 220 20 2.4
2018-Sep-19 06:00 230 20 2.3
2018-Sep-19 05:00 230 24 2.3
2018-Sep-19 04:00 220 26 2.2
2018-Sep-19 03:00 220 26 2.3
2018-Sep-19 02:00 220 24 2.3
2018-Sep-19 01:00 220 24 2.2
2018-Sep-19 00:00 220 24 2.1
2018-Sep-18 23:00 210 25 2.0
2018-Sep-18 22:00 220 21 2.1
2018-Sep-18 21:00 220 22 2.4
2018-Sep-18 20:00 230 21 2.4
2018-Sep-18 19:00 240 21 2.8
2018-Sep-18 18:00 230 25 2.9
2018-Sep-18 17:00 240 24 2.8
2018-Sep-18 16:00 230 27 2.7
2018-Sep-18 15:00 230 27 2.6
2018-Sep-18 14:00 230 26 2.6
2018-Sep-18 13:00 220 27 2.3